Regional Weather Roundup
Issued by NWS Sioux Falls, SD

Home | Current Version | Previous Version | Text Only | Print | Product List | Glossary Off
Versions: 1 2 3 4 5 6 7 8 9 10 11 12 13 14 15 16 17 18 19 20 21 22 23 24 25 26 27 28 29 30 31 32 33 34 35 36 37 38 39 40 41 42 43 44 45 46 47 48 49 50

000
ASUS43 KFSD 252002
RWRFSD

WEATHER ROUNDUP FOR SE SOUTH DAKOTA/SW MINNESOTA/NW IOWA
NATIONAL WEATHER SERVICE SIOUX FALLS SD
200 PM CST SUN JAN 25 2015

NOTE: "FAIR" INDICATES FEW OR NO CLOUDS BELOW 12,000 FEET WITH NO
SIGNIFICANT WEATHER AND OR OBSTRUCTIONS TO VISIBILITY.


SDZ038>040-050-052>070-252100-
SOUTHEAST SOUTH DAKOTA

CITY           SKY/WX    TMP DP  RH WIND       PRES   REMARKS
CHAMBERLAIN    NOT AVBL
HURON          CLOUDY    33  29  85 NW7       30.03S WCI  27
MADISON        CLOUDY    32  32 100 NW6       30.01R WCI  26
MITCHELL       CLOUDY    36  32  85 NW6       30.03F
SIOUX FALLS    CLOUDY    34  30  85 NW7       30.01S WCI  28
WINNER         CLOUDY    41  30  65 W12       30.03F
YANKTON        CLOUDY    36  30  80 NW8       30.03F
$$

MNZ071-072-080-081-089-090-097-098-252100-
SOUTHWEST MINNESOTA

CITY           SKY/WX    TMP DP  RH WIND       PRES   REMARKS
FAIRMONT       CLOUDY    28  21  74 N8        29.99S WCI  20
JACKSON        CLOUDY    30  25  80 N7        29.99F WCI  23
LUVERNE        CLOUDY    34  32  93 N5        30.01S WCI  30
MARSHALL       CLOUDY    28  25  86 NW10      30.03S WCI  19
MONTEVIDEO     CLOUDY    32  27  80 NE3       30.04S
PIPESTONE      CLOUDY    30  28  93 N7        29.99R FOG     WCI  23
REDWOOD FALLS  CLOUDY    30  22  72 N6        30.02S WCI  24
TRACY          CLOUDY    30  28  92 N3        30.01S
WINDOM         CLOUDY    28  25  86 N6        30.00S WCI  22
WORTHINGTON    CLOUDY    28  25  86 N8        30.00S WCI  20
$$

IAZ001>003-012>014-020>022-031-032-NEZ013-014-SDZ071-252100-
NORTHWEST IOWA

CITY           SKY/WX    TMP DP  RH WIND       PRES   REMARKS
ESTHERVILLE    CLOUDY    28  25  88 N9        29.99S WCI  19
SIOUX CITY     CLOUDY    38  33  82 N10       30.02S
SPENCER        CLOUDY    32  27  81 N13       30.01R WCI  22
$$

ABBREVIATIONS USED IN REMARKS
   TC - TEMPERATURE IN CELSIUS
  WCI - WIND CHILL INDEX
   HX - HEAT INDEX
  VSB - VISIBILITY



USA.gov is the U.S. government's official web portal to all federal, state and local government web resources and services.